Content
SEND FEEDBACK

Daily
Averages
Monthly
Summary
Thailand

PHUKET, THAILAND


Home > Asia > Thailand
Elevation: 33 feet     Latitude: 08 07N     Longitude: 098 19E

WEATHER
 
SELECT A DAY
Number of Records: 227,970;   Date Range: 7/1/96 - 9/16/14
 
SHARE

PRINT THIS DATA

[ ← Previous Day ]
WEATHER ALMANAC - AUGUST 21, 2013
[ Next Day → ]
[ °C ]   °F
Weather ElementAverageHighLow
Temperature83.9 °F88 °F (1:00 pm)80.6 °F (1:30 am)
Dewpoint73.4 °F77 °F (1:00 pm)71.6 °F (4:30 am)
Humidity70.4 %79 % (1:30 am)58 % (12:30 pm)
Barometer29.81 in29.86 in (12:30 am)29.76 in (7:00 am)
Wind Speed12 mph19.6 mph (12:00 pm)
Weather ElementAverage
Visibility5.2 mi
Wind DirectionWSW (254.5 °)

Weather ElementTotal
Precipitation---
Cooling Degree Days19.3 (Base 65)
Growing Degree Days34.3 (Base 50)
Averaged from 50 records on August 21, 2013
WEATHER CONDITIONS BREAKOUT
WIND DIRECTION BREAKOUT
WEATHER BY HOUR - AUGUST 21, 2013
[ °C ]   °F
Local TimeTemperatureDewpointHumidityBarometerVisibilityWind DirectionWind SpeedGust SpeedPrecipitationEventsConditions
12:30 AM82.4 °F73.4 °F74 %29.86 in5.0 miWSW (240°)5.8 mphScattered Clouds
1:00 AM83.0 °F75.0 °F71 %29.81 in6.0 miCalmMist
1:00 AM82.4 °F73.4 °F74 %29.83 in5.0 miWSW (240°)6.9 mphScattered Clouds
1:30 AM80.6 °F73.4 °F79 %29.83 in5.0 miWSW (250°)8.1 mphScattered Clouds
2:00 AM80.6 °F73.4 °F79 %29.83 in5.0 miVariable3.5 mphScattered Clouds
2:30 AM80.6 °F73.4 °F79 %29.83 in5.0 miWSW (250°)5.8 mphScattered Clouds
3:00 AM80.6 °F73.4 °F79 %29.80 in5.0 miWest (260°)8.1 mphScattered Clouds
4:00 AM82.4 °F73.4 °F74 %29.77 in5.0 miWest (270°)12.7 mphScattered Clouds
4:30 AM82.4 °F71.6 °F70 %29.77 in5.0 miWest (260°)11.5 mphScattered Clouds
5:00 AM82.4 °F71.6 °F70 %29.77 in5.0 miWSW (250°)11.5 mphScattered Clouds
5:30 AM80.6 °F71.6 °F74 %29.77 in5.0 miWest (270°)12.7 mphScattered Clouds
6:00 AM80.6 °F73.4 °F79 %29.77 in5.0 miWest (270°)10.4 mphScattered Clouds
6:30 AM80.6 °F73.4 °F79 %29.77 in5.0 miWest (280°)9.2 mphMostly Cloudy
7:00 AM83.0 °F76.0 °F73 %29.76 in5.0 miWest (270°)8.1 mphMist
7:00 AM82.4 °F73.4 °F74 %29.77 in5.0 miWest (270°)9.2 mphMostly Cloudy
7:30 AM82.4 °F75.2 °F79 %29.80 in5.0 miWest (280°)13.8 mphMostly Cloudy
8:00 AM82.4 °F75.2 °F79 %29.80 in5.0 miWSW (250°)6.9 mphMostly Cloudy
8:30 AM84.2 °F75.2 °F74 %29.83 in5.6 miWest (260°)12.7 mphMostly Cloudy
9:00 AM86.0 °F73.4 °F66 %29.83 in5.6 miWest (270°)16.1 mphMostly Cloudy
9:30 AM86.0 °F73.4 °F66 %29.83 in5.6 miWest (270°)16.1 mphMostly Cloudy
10:00 AM86.0 °F73.4 °F66 %29.83 in5.6 miWest (270°)15.0 mphMostly Cloudy
10:30 AM86.0 °F73.4 °F66 %29.83 in3.1 miWest (270°)16.1 mphRainRain
11:00 AM86.0 °F75.2 °F70 %29.83 in5.0 miWest (260°)13.8 mphMostly Cloudy
11:30 AM86.0 °F73.4 °F66 %29.83 in5.6 miWest (270°)17.3 mphMostly Cloudy
12:00 PM87.8 °F73.4 °F62 %29.83 in5.6 miWest (270°)19.6 mphMostly Cloudy
12:30 PM87.8 °F71.6 °F58 %29.83 in5.6 miWest (270°)19.6 mphMostly Cloudy
1:00 PM88.0 °F77.0 °F63 %29.79 in6.0 miWNW (300°)11.5 mphPartly Cloudy
1:00 PM87.8 °F73.4 °F62 %29.80 in5.6 miWest (270°)17.3 mphMostly Cloudy
1:30 PM87.8 °F73.4 °F62 %29.80 in5.6 miWest (270°)18.4 mphMostly Cloudy
2:00 PM87.8 °F73.4 °F62 %29.80 in5.6 miWest (270°)17.3 mphMostly Cloudy
2:30 PM87.8 °F71.6 °F58 %29.80 in5.6 miWest (270°)18.4 mphMostly Cloudy
3:00 PM86.0 °F73.4 °F66 %29.80 in5.6 miWest (280°)17.3 mphMostly Cloudy
3:30 PM86.0 °F73.4 °F66 %29.77 in5.6 miWest (280°)18.4 mphMostly Cloudy
4:00 PM86.0 °F73.4 °F66 %29.77 in5.6 miWest (270°)13.8 mphMostly Cloudy
4:30 PM84.2 °F73.4 °F70 %29.77 in5.6 miWest (280°)13.8 mphMostly Cloudy
5:00 PM84.2 °F73.4 °F70 %29.77 in5.6 miWest (270°)15.0 mphMostly Cloudy
5:30 PM84.2 °F73.4 °F70 %29.80 in5.6 miWest (270°)13.8 mphMostly Cloudy
6:00 PM84.2 °F73.4 °F70 %29.80 in5.6 miWest (270°)13.8 mphMostly Cloudy
6:30 PM84.2 °F71.6 °F66 %29.80 in5.0 miWest (270°)15.0 mphMostly Cloudy
7:00 PM84.0 °F74.0 °F66 %29.76 in6.0 miWest (280°)10.4 mphScattered Clouds
7:00 PM84.2 °F71.6 °F66 %29.80 in5.0 miWest (270°)15.0 mphMostly Cloudy
7:30 PM84.2 °F73.4 °F70 %29.80 in5.0 miWest (270°)12.7 mphMostly Cloudy
8:00 PM82.4 °F71.6 °F70 %29.80 in5.0 miWest (270°)13.8 mphMostly Cloudy
8:30 PM82.4 °F73.4 °F74 %29.83 in5.0 miWest (270°)10.4 mphMostly Cloudy
9:00 PM82.4 °F73.4 °F74 %29.83 in5.0 miWSW (250°)11.5 mphMostly Cloudy
9:30 PM82.4 °F73.4 °F74 %29.83 in5.0 miWSW (250°)6.9 mphMostly Cloudy
10:00 PM82.4 °F73.4 °F74 %29.83 in5.0 miVariable4.6 mphMostly Cloudy
10:30 PM82.4 °F73.4 °F74 %29.86 in5.0 miSW (230°)4.6 mphMostly Cloudy
11:00 PM82.4 °F73.4 °F74 %29.86 in5.0 miWSW (240°)6.9 mphMostly Cloudy
11:30 PM82.4 °F73.4 °F74 %29.86 in5.0 miWSW (250°)8.1 mphMostly Cloudy
Hourly data recorded from VTSP, located miles away from Phuket, Thailand







STORIES FROM OUR PARTNERS